Weather History for Winner, SD

Change the Weather History Date:

Tuesday, November 20, 2012

  Actual Average Record
Temperature  
Mean Temperature 51 °F 33 °F  
Max Temperature 73 °F 43 °F 73 °F (2012)
Min Temperature 28 °F 24 °F 5 °F (2011)
Degree Days  
Heating Degree Days 14 32  
Month to date heating degree days 497 529  
Since 1 July heating degree days 1042 1127  
Cooling Degree Days 0 0  
Month to date cooling degree days 0 0  
Year to date cooling degree days 1470 916  
Growing Degree Days 2 (Base 50)    
Moisture  
Dew Point 28 °F    
Average Humidity 49    
Maximum Humidity 78    
Minimum Humidity 19    
Precipitation  
Precipitation 0.00 in 0.02 in 0.00 in (2014)
Month to date precipitation 0.01 0.47  
Year to date precipitation 10.16 21.10  
Sea Level Pressure  
Sea Level Pressure 30.04 in    
Wind  
Wind Speed 12 mph (SSW)    
Max Wind Speed 25 mph    
Max Gust Speed 31 mph    
Visibility 10 miles    
Events      
T = Trace of Precipitation, MM = Missing Value Source: NWS Daily Summary

Daily Weather History Graph

Daily Weather History Graph

Search for Another Location

Airport:

Trip Planner

Search our weather history database for the weather conditions in past years. The results will help you decide how hot, cold, wet, or windy it might be!

Date:

Astronomy

Nov. 20, 2012 Rise Set
Actual Time 7:39 AM CST 5:10 PM CST
Civil Twilight 7:08 AM CST 5:41 PM CST
Nautical Twilight 6:33 AM CST 6:16 PM CST
Astronomical Twilight 5:59 AM CST 6:50 PM CST
Moon 1:08 PM CST (11/20) No Moon Set
Length of Visible Light 10h 32m
Length of Day
9h 30m
First Quarter, 51% of the Moon is Illuminated
Nov 20
First Quarter
Nov 28
Full
Dec 6
Last Quarter
Dec 13
New
Dec 19
First Quarter

Hourly Weather History & Observations

Time (CST) Temp. Windchill Dew Point Humidity Pressure Visibility Wind Dir Wind Speed Gust Speed Precip Events Conditions
12:53 AM 39.0 °F 32.8 °F 28.0 °F 65% 30.17 in 10.0 mi SSE 9.2 mph - N/A   Clear
2:53 AM 30.9 °F 25.2 °F 25.0 °F 79% 30.20 in 10.0 mi SSE 5.8 mph - N/A   Clear
3:53 AM 36.0 °F 31.1 °F 27.0 °F 70% 30.16 in 10.0 mi SSE 5.8 mph - N/A   Clear
4:53 AM 39.0 °F 31.8 °F 28.9 °F 67% 30.14 in 10.0 mi South 11.5 mph - N/A   Clear
6:53 AM 46.0 °F 39.0 °F 27.0 °F 47% 30.11 in 10.0 mi South 17.3 mph - N/A   Clear
7:53 AM 44.1 °F 37.7 °F 28.0 °F 53% 30.10 in 10.0 mi South 12.7 mph - N/A   Clear
8:53 AM 44.1 °F 35.9 °F 28.0 °F 53% 30.10 in 10.0 mi SSW 19.6 mph - N/A   Clear
9:53 AM 50.0 °F - 30.0 °F 46% 30.10 in 10.0 mi SSW 18.4 mph 27.6 mph N/A   Clear
10:53 AM 57.9 °F - 30.9 °F 36% 30.08 in 10.0 mi SSW 18.4 mph - N/A   Clear
11:53 AM 66.0 °F - 30.0 °F 26% 30.05 in 10.0 mi SSW 19.6 mph - N/A   Clear
12:53 PM 71.1 °F - 27.0 °F 19% 29.99 in 10.0 mi SSW 19.6 mph 27.6 mph N/A   Clear
1:53 PM 73.0 °F - 28.0 °F 19% 29.97 in 10.0 mi SW 17.3 mph 26.5 mph N/A   Clear
2:53 PM 73.0 °F - 28.0 °F 19% 29.96 in 10.0 mi SW 13.8 mph 18.4 mph N/A   Clear
3:53 PM 72.0 °F - 28.0 °F 20% 29.95 in 10.0 mi SW 9.2 mph - N/A   Clear
4:53 PM 66.0 °F - 28.9 °F 25% 29.96 in 10.0 mi SW 6.9 mph - N/A   Clear
5:53 PM 55.0 °F - 28.9 °F 37% 29.98 in 10.0 mi West 8.1 mph - N/A   Clear
6:53 PM 57.9 °F - 28.9 °F 33% 29.97 in 10.0 mi SW 5.8 mph - N/A   Clear
7:53 PM 57.9 °F - 28.9 °F 33% 29.97 in 10.0 mi SSW 6.9 mph - N/A   Clear
8:53 PM 55.9 °F - 28.0 °F 34% 29.97 in 10.0 mi SW 6.9 mph - N/A   Clear
9:53 PM 55.0 °F - 28.0 °F 35% 29.96 in 10.0 mi SSW 8.1 mph - N/A   Clear
10:53 PM 50.0 °F - 27.0 °F 41% 29.96 in 10.0 mi SSW 8.1 mph - N/A   Clear
11:53 PM 52.0 °F - 27.0 °F 38% 29.93 in 10.0 mi SW 8.1 mph - N/A   Clear